{"data":{"norad_id":49332,"intl_designator":"2021-095A","name":"SES-17","alt_names":[],"object_type":"PAYLOAD","status":"ACTIVE","operator":null,"country":"SES","launch_date":"2021-10-24","launch_site_code":"FRGUI","launch_vehicle":null,"mission":null,"orbit_class":"UNKNOWN","rcs_meters":null,"size_class":null,"mass_kg":null,"dimensions":null,"purposes":["comms"],"wikipedia_slug":null,"has_3d_model":false,"image_url":null,"decayed_at":null,"tle_current":{"epoch":"2026-05-24T23:22:38.556768Z","epoch_age_seconds":74601,"freshness":"FRESH","line1":"1 49332U 21095A   26144.97405737 -.00000275  00000+0  00000+0 0  9990","line2":"2 49332   0.0320  45.9931 0000874  30.5387  89.6063  1.00273631 17625","mean_motion":1.00273631,"eccentricity":8.74e-5,"inclination_deg":0.032,"raan_deg":45.9931,"arg_perigee_deg":30.5387,"mean_anomaly_deg":89.6063,"bstar":0,"rev_number":1762,"period_min":1436.0704660231,"perigee_km":35782.392315974,"apogee_km":35789.762620663,"semimajor_km":42164.214468318,"source":"CELESTRAK","updated_at":"2026-05-25T13:38:14.516437Z"}}}